| time (UTC) | temp C | wind direction | speed KPH | gust KPH | rain 1hr cm | rain 24hr cm | rain mn cm | humidity % | barometer mb |
| 20260504000100 | 18 | 0.0 | 0.0 | 0.00 | 0.00 | 0.00 | 30 | 993.8 | |
| 20260503234555 | 18 | 0.0 | 0.0 | 0.00 | 0.00 | 0.00 | 30 | 994.1 | |
| 20260503233101 | 18 | 0.0 | 0.0 | 0.00 | 0.00 | 0.00 | 29 | 994.1 | |
| 20260503231556 | 19 | 0.0 | 0.0 | 0.00 | 0.00 | 0.00 | 27 | 994.0 | |
| 20260503230055 | 20 | 0.0 | 0.0 | 0.00 | 0.00 | 0.00 | 28 | 994.2 | |
| 20260503224552 | 20 | 0.0 | 0.0 | 0.00 | 0.00 | 0.00 | 39 | 994.4 | |
| 20260503223054 | 20 | 0.0 | 0.0 | 0.00 | 0.00 | 0.00 | 39 | 994.5 | |
| 20260503221554 | 19 | 0.0 | 0.0 | 0.00 | 0.00 | 0.00 | 41 | 994.7 | |
| 20260503220054 | 19 | 0.0 | 0.0 | 0.00 | 0.00 | 0.00 | 41 | 994.9 | |
| 20260503214601 | 19 | 0.0 | 0.0 | 0.00 | 0.00 | 0.00 | 39 | 995.0 | |
| 20260503213053 | 18 | 0.0 | 0.0 | 0.00 | 0.00 | 0.00 | 40 | 994.9 | |
| 20260503211554 | 18 | 0.0 | 0.0 | 0.00 | 0.00 | 0.00 | 39 | 995.4 | |
| 20260503210055 | 18 | 0.0 | 0.0 | 0.00 | 0.00 | 0.00 | 41 | 995.6 | |
| 20260503204559 | 21 | 0.0 | 0.0 | 0.00 | 0.00 | 0.00 | 24 | 995.5 | |
| 20260503203059 | 23 | 0.0 | 0.0 | 0.00 | 0.00 | 0.00 | 22 | 995.2 | |
| 20260503201553 | 22 | 0.0 | 0.0 | 0.00 | 0.00 | 0.00 | 22 | 995.6 | |
| 20260503200053 | 21 | 0.0 | 0.0 | 0.00 | 0.00 | 0.00 | 23 | 996.3 | |
| 20260503194554 | 21 | 0.0 | 0.0 | 0.00 | 0.00 | 0.00 | 23 | 996.3 | |
| 20260503193111 | 21 | 0.0 | 0.0 | 0.00 | 0.00 | 0.00 | 24 | 996.9 | |
| 20260503191558 | 21 | 0.0 | 0.0 | 0.00 | 0.00 | 0.00 | 23 | 997.7 | |
| 20260503190105 | 21 | 0.0 | 0.0 | 0.00 | 0.00 | 0.00 | 26 | 998.3 | |
| 20260503184556 | 20 | 0.0 | 0.0 | 0.00 | 0.00 | 0.00 | 27 | 998.9 | |
| 20260503183101 | 20 | 0.0 | 0.0 | 0.00 | 0.00 | 0.00 | 27 | 999.5 | |
| 20260503181552 | 20 | 0.0 | 0.0 | 0.00 | 0.00 | 0.00 | 28 | 1000.1 | |
| 20260503180058 | 20 | 0.0 | 0.0 | 0.00 | 0.00 | 0.00 | 27 | 1000.6 | |
| 20260503174552 | 20 | 0.0 | 0.0 | 0.00 | 0.00 | 0.00 | 28 | 1001.1 | |
| 20260503173112 | 20 | 0.0 | 0.0 | 0.00 | 0.00 | 0.00 | 27 | 1001.5 | |
| 20260503171554 | 20 | 0.0 | 0.0 | 0.00 | 0.00 | 0.00 | 27 | 1001.9 | |
| 20260503150106 | 15 | 0.0 | 0.0 | 0.00 | 0.00 | 0.00 | 40 | 1005.6 | |
| 20260503140113 | 11 | 0.0 | 0.0 | 0.00 | 0.00 | 0.00 | 52 | 1006.8 | |
| 20260503100104 | 2 | 0.0 | 0.0 | 0.00 | 0.00 | 0.00 | 67 | 1009.6 | |
| 20260503081601 | 3 | 0.0 | 0.0 | 0.00 | 0.00 | 0.00 | 64 | 1010.0 | |
| 20260503071607 | 3 | 0.0 | 0.0 | 0.00 | 0.00 | 0.00 | 65 | 1010.6 | |
| 20260503060108 | 3 | 0.0 | 0.0 | 0.00 | 0.00 | 0.00 | 60 | 1010.8 | |
| 20260503054558 | 4 | 0.0 | 0.0 | 0.00 | 0.00 | 0.00 | 58 | 1010.9 | |
| 20260503053052 | 5 | 0.0 | 0.0 | 0.00 | 0.00 | 0.00 | 56 | 1010.8 | |
| 20260503051558 | 5 | 0.0 | 0.0 | 0.00 | 0.00 | 0.00 | 56 | 1010.7 | |
| 20260503050055 | 5 | 0.0 | 0.0 | 0.00 | 0.00 | 0.00 | 52 | 1010.9 | |
| 20260503044552 | 6 | 0.0 | 0.0 | 0.00 | 0.00 | 0.00 | 47 | 1010.9 | |
| 20260503043057 | 7 | 0.0 | 0.0 | 0.00 | 0.00 | 0.00 | 43 | 1010.8 | |
| 20260503041551 | 7 | 0.0 | 0.0 | 0.00 | 0.00 | 0.00 | 44 | 1010.9 | |
| 20260503040052 | 7 | 0.0 | 0.0 | 0.00 | 0.00 | 0.00 | 46 | 1011.0 | |
| 20260503034551 | 7 | 0.0 | 0.0 | 0.00 | 0.00 | 0.00 | 46 | 1011.0 | |
| 20260503033055 | 8 | 0.0 | 0.0 | 0.00 | 0.00 | 0.00 | 46 | 1010.9 | |
| 20260503031552 | 8 | 0.0 | 0.0 | 0.00 | 0.00 | 0.00 | 44 | 1010.9 | |
| 20260503030056 | 8 | 0.0 | 0.0 | 0.00 | 0.00 | 0.00 | 43 | 1010.9 | |
| 20260503024602 | 9 | 0.0 | 0.0 | 0.00 | 0.00 | 0.00 | 42 | 1010.9 | |
| 20260503023052 | 9 | 0.0 | 0.0 | 0.00 | 0.00 | 0.00 | 42 | 1010.7 | |
| 20260503021559 | 10 | 0.0 | 0.0 | 0.00 | 0.00 | 0.00 | 40 | 1010.6 | |
| 20260503020057 | 10 | 0.0 | 0.0 | 0.00 | 0.00 | 0.00 | 42 | 1010.4 | |
| 20260503014621 | 11 | 0.0 | 0.0 | 0.00 | 0.00 | 0.00 | 45 | 1010.2 | |
| 20260503013049 | 12 | 0.0 | 0.0 | 0.00 | 0.00 | 0.00 | 42 | 1010.1 | |
| 20260503011609 | 12 | 0.0 | 0.0 | 0.00 | 0.00 | 0.00 | 39 | 1010.0 | |
| 20260503010059 | 13 | 0.0 | 0.0 | 0.00 | 0.00 | 0.00 | 37 | 1010.0 | |
| 20260503004600 | 14 | 0.0 | 0.0 | 0.00 | 0.00 | 0.00 | 37 | 1009.8 | |
| 20260503003106 | 14 | 0.0 | 0.0 | 0.00 | 0.00 | 0.00 | 40 | 1009.8 | |
| 20260503001608 | 15 | 0.0 | 0.0 | 0.00 | 0.00 | 0.00 | 40 | 1009.8 |